User: anonymous   Login
Location: Unspecified
(0.0000°N, 0.0000°E)
Time: 00:56:27
(UTC+00:00)
Language:

OBJECT M - Orbit

View from above orbital plane
View from above orbital plane
View from above satellite
View from above satellite

Ground track
Ground track

The orbit data is extracted from the following two-line orbital elements,

1 42836U 17042M   17324.59821660 +.00000295 +00000-0 +35330-4 0  9995
2 42836 097.6075 229.6718 0013431 169.4851 190.6651 14.90955395019266
Epoch (UTC): 20 November 2017 14:21:25
Eccentricity: 0.0013431
inclination: 97.6075°
perigee height: 585 km
apogee height: 604 km
right ascension of ascending node: 229.6718°
argument of perigee: 169.4851°
revolutions per day: 14.90955395
mean anomaly at epoch: 190.6651°
orbit number at epoch: 1926

The dashed part of the orbit path shows where the satellite is in the earth's shadow,  

DLR